TimeEEST,TemperatureF,Dew PointF,Humidity,Sea Level PressureIn,VisibilityMPH,Wind Direction,Wind SpeedMPH,Gust SpeedMPH,PrecipitationIn,Events,Conditions,WindDirDegrees,DateUTC
12:20 AM,37.4,24.8,60,30.27,6.2,ENE,16.1,-,N/A,,Scattered Clouds,60,2013-10-07 21:20:00
12:50 AM,35.6,24.8,65,30.27,-9999.0,ENE,12.7,-,N/A,,Clear,60,2013-10-07 21:50:00
1:20 AM,35.6,24.8,65,30.27,-9999.0,ENE,12.7,-,N/A,,Clear,70,2013-10-07 22:20:00
1:50 AM,33.8,24.8,70,30.27,-9999.0,ENE,11.5,-,N/A,,Clear,70,2013-10-07 22:50:00
2:20 AM,32.0,24.8,75,30.30,-9999.0,Variable,2.3,-,N/A,,Clear,0,2013-10-07 23:20:00
2:50 AM,33.8,24.8,70,30.27,-9999.0,East,10.4,-,N/A,,Clear,90,2013-10-07 23:50:00
3:00 AM,33,25,62,,12,East,10.4,,,,,90,2013-10-08 00:00:00
3:20 AM,30.2,24.8,80,30.30,-9999.0,ENE,9.2,-,N/A,,Clear,60,2013-10-08 00:20:00
3:50 AM,32.0,26.6,80,30.30,-9999.0,ENE,8.1,-,N/A,,Clear,60,2013-10-08 00:50:00
4:20 AM,32.0,26.6,80,30.30,-9999.0,ENE,8.1,-,N/A,,Clear,60,2013-10-08 01:20:00
4:50 AM,30.2,26.6,86,30.30,-9999.0,ENE,8.1,-,N/A,,Clear,60,2013-10-08 01:50:00
5:20 AM,32.0,26.6,80,30.30,-9999.0,NE,10.4,-,N/A,,Clear,50,2013-10-08 02:20:00
5:50 AM,32.0,24.8,75,30.30,-9999.0,ENE,18.4,-,N/A,,Clear,70,2013-10-08 02:50:00
6:20 AM,32.0,24.8,75,30.30,-9999.0,ENE,16.1,-,N/A,,Clear,60,2013-10-08 03:20:00
6:50 AM,32.0,24.8,75,30.33,-9999.0,ENE,13.8,-,N/A,,Clear,70,2013-10-08 03:50:00
7:20 AM,33.8,24.8,70,30.33,-9999.0,ENE,15.0,-,N/A,,Clear,60,2013-10-08 04:20:00
7:50 AM,35.6,24.8,65,30.33,-9999.0,ENE,16.1,-,N/A,,Clear,70,2013-10-08 04:50:00
8:20 AM,37.4,24.8,60,30.33,-9999.0,ENE,18.4,-,N/A,,Clear,70,2013-10-08 05:20:00
8:50 AM,39.2,24.8,56,30.36,-9999.0,East,12.7,-,N/A,,Clear,90,2013-10-08 05:50:00
9:00 AM,38,25,48,,12,East,11.5,,,,Scattered Clouds,90,2013-10-08 06:00:00
9:20 AM,41.0,24.8,53,30.36,-9999.0,East,10.4,-,N/A,,Clear,80,2013-10-08 06:20:00
9:50 AM,41.0,23.0,49,30.36,-9999.0,ENE,13.8,-,N/A,,Clear,70,2013-10-08 06:50:00
10:20 AM,41.0,23.0,49,30.36,6.2,ENE,13.8,-,N/A,,Partly Cloudy,60,2013-10-08 07:20:00
10:50 AM,42.8,23.0,46,30.33,6.2,NE,12.7,-,N/A,,Scattered Clouds,50,2013-10-08 07:50:00
11:20 AM,42.8,24.8,49,30.36,6.2,NE,11.5,-,N/A,,Scattered Clouds,50,2013-10-08 08:20:00
11:50 AM,44.6,23.0,43,30.33,6.2,ENE,10.4,-,N/A,,Scattered Clouds,60,2013-10-08 08:50:00
12:20 PM,46.4,23.0,40,30.33,6.2,NE,9.2,-,N/A,,Scattered Clouds,40,2013-10-08 09:20:00
12:50 PM,46.4,21.2,37,30.33,6.2,NE,10.4,-,N/A,,Scattered Clouds,50,2013-10-08 09:50:00
1:20 PM,46.4,21.2,37,30.33,6.2,NNE,10.4,-,N/A,,Scattered Clouds,30,2013-10-08 10:20:00
1:50 PM,48.2,21.2,34,30.33,6.2,NE,12.7,-,N/A,,Scattered Clouds,50,2013-10-08 10:50:00
2:20 PM,48.2,21.2,34,30.33,6.2,ENE,10.4,-,N/A,,Scattered Clouds,60,2013-10-08 11:20:00
2:50 PM,50.0,23.0,35,30.33,6.2,NE,11.5,-,N/A,,Scattered Clouds,40,2013-10-08 11:50:00
3:00 PM,49,22,22,,12,NE,11.5,,,,Partly Cloudy,40,2013-10-08 12:00:00
3:20 PM,50.0,21.2,32,30.33,6.2,NNE,10.4,-,N/A,,Scattered Clouds,30,2013-10-08 12:20:00
3:50 PM,50.0,23.0,35,30.33,6.2,NE,11.5,-,N/A,,Scattered Clouds,40,2013-10-08 12:50:00
4:20 PM,48.2,21.2,34,30.33,6.2,NE,11.5,-,N/A,,Scattered Clouds,40,2013-10-08 13:20:00
4:50 PM,48.2,21.2,34,30.33,6.2,NE,10.4,-,N/A,,Partly Cloudy,50,2013-10-08 13:50:00
5:20 PM,46.4,23.0,40,30.33,6.2,NE,10.4,-,N/A,,Partly Cloudy,50,2013-10-08 14:20:00
5:50 PM,42.8,24.8,49,30.33,6.2,NE,8.1,-,N/A,,Partly Cloudy,40,2013-10-08 14:50:00
6:20 PM,41.0,23.0,49,30.36,6.2,ENE,9.2,-,N/A,,Partly Cloudy,60,2013-10-08 15:20:00
6:50 PM,41.0,23.0,49,30.36,-9999.0,ENE,8.1,-,N/A,,Clear,60,2013-10-08 15:50:00
7:20 PM,37.4,24.8,60,30.36,-9999.0,NE,6.9,-,N/A,,Clear,50,2013-10-08 16:20:00
7:50 PM,39.2,24.8,56,30.36,-9999.0,NE,9.2,-,N/A,,Clear,50,2013-10-08 16:50:00
8:20 PM,37.4,24.8,60,30.39,-9999.0,NE,10.4,-,N/A,,Clear,40,2013-10-08 17:20:00
8:50 PM,35.6,24.8,65,30.39,-9999.0,Variable,2.3,-,N/A,,Clear,0,2013-10-08 17:50:00
9:00 PM,36,24,50,,12,WNW,2.3,,,,,300,2013-10-08 18:00:00
9:20 PM,35.6,24.8,65,30.39,-9999.0,ENE,4.6,-,N/A,,Clear,70,2013-10-08 18:20:00
9:50 PM,35.6,24.8,65,30.39,-9999.0,ENE,5.8,-,N/A,,Clear,60,2013-10-08 18:50:00
10:20 PM,33.8,24.8,70,30.39,-9999.0,NNE,2.3,-,N/A,,Clear,20,2013-10-08 19:20:00
10:50 PM,35.6,24.8,65,30.39,-9999.0,East,3.5,-,N/A,,Clear,90,2013-10-08 19:50:00
11:20 PM,35.6,24.8,65,30.39,-9999.0,East,4.6,-,N/A,,Clear,80,2013-10-08 20:20:00
11:50 PM,28.4,24.8,86,30.39,-9999.0,East,4.6,-,N/A,,Clear,90,2013-10-08 20:50:00